PSLV R/B, 46915

Orbit data source: Space-Track

PSLV R/B, 46915 is space debris in LEO originally from a launch on Sat, 07 Nov 2020 UTC launched from the Sirharikota (SRI). Debris objects in space refer to the collection of defunct objects orbiting the Earth. Examples of debris include non-operational satellites, rocket bodies, and fragments generated from explosions, collisions, or faulty payload assembly.

Loading next visibility...
Identifier
46915, 2020-081L
Orbit
LEO
Country
Flag of ININ / IND
Related business
Manufacturer
VSSC/LPSC
Mission
Spacecraft
Bus & Motor
PS-4DL, Unknown motor
Mass
920 kg wet, 920 kg dry
Launch date (UTC)
2020-11-07 (5 years ago)
Launch vehicle
Unknown
Launch site
Sirharikota (SRI)
Object type
Payload
Rocket body
Debris
Shape & HBR
Cyl + Cyl + 2 Nozzle, Unknown HBR
Radar Cross Section
10.342 m², Large (>1 m²)

Expand to show TLE details & history
Last TLE update: 23 hours ago

TLE from 23 hours ago
0 PSLV R/B
1 46915U 20081L   25261.02664556  .00010002  00000-0  33042-3 0  9994
2 46915  36.8470 139.7040 0023844 100.3833 259.9605 15.30571086269254
Epoch: 2025-09-18T00:38Z
TLE epoch observation values (Epoch: 2025-09-18T00:38:22.176Z)
Latitude
-0.00005°
Longitude
132.91738°
Altitude
476.092 km
Speed
7.628 km/s
True Right ascension
09h 18m 48s
True Declination
0° 00' 00"
Sunlit
Object was in daylight at epoch
Visualization orbit readout
Latitude
Unknown
Longitude
Unknown
Altitude
Unknown
Speed
Unknown
Apparent Right ascension
Unknown
Apparent Declination
Unknown
Sunlit
N/A
Visualization observer readout
Local Sidereal Time
16:47:07
Azimuth
Unknown
Elevation
Unknown
Doppler factor
Unknown
Orbital elements
Apogee altitude
493.418 km
Perigee altitude
460.727 km
Semi-major axis
6,855.21 km
Eccentricity
0.00238
Inclination
36.847°
RAAN
139.704°
Arg. of periapsis
100.3833°
True anomaly
259.69159°
Mean anomaly
259.9605°
Eccentric anomaly
259.82603°
Mean motion
3.82395 °/min
Orbital period
94.14 mins
BSTAR
0.00033042
Loading maneuver chart data...
Computing Atmospheric mass density...
Loading historical data...
Loading historical data...
Loading historical data...
Loading historical data...
Loading historical data...
Loading historical data...
Loading historical data...

Documentation

Showing up to 5 results
|